�������l�o���
Date,Time,MP-1(��Sv/h),MP-2(��Sv/h),MP-3(��Sv/h),MP-4(��Sv/h),MP-5(��Sv/h),MP-6(��Sv/h),MP-7(��Sv/h),MP-8(��Sv/h),����,����(m/s),���J
2021/11/19,00:00,0.590,0.889,0.562,1.093,0.763,0.358,0.622,0.585,���쐼,3.4,��
2021/11/19,00:10,0.591,0.888,0.561,1.089,0.762,0.358,0.621,0.585,���쐼,4.9,��
2021/11/19,00:20,0.591,0.885,0.563,1.089,0.764,0.358,0.620,0.583,���쐼,5.0,��
2021/11/19,00:30,0.591,0.889,0.563,1.088,0.762,0.357,0.622,0.584,���쐼,3.7,��
2021/11/19,00:40,0.590,0.887,0.562,1.089,0.760,0.358,0.621,0.584,�쐼,3.0,��
2021/11/19,00:50,0.590,0.887,0.562,1.089,0.763,0.358,0.622,0.584,�쐼,3.0,��
2021/11/19,01:00,0.591,0.887,0.562,1.089,0.762,0.357,0.621,0.582,�쐼,2.8,��
2021/11/19,01:10,0.589,0.886,0.564,1.091,0.763,0.358,0.622,0.586,�쐼,1.2,��
2021/11/19,01:20,0.591,0.887,0.563,1.091,0.762,0.357,0.623,0.584,���쐼,1.2,��
2021/11/19,01:30,0.590,0.888,0.563,1.090,0.762,0.358,0.622,0.585,�쐼,0.6,��
2021/11/19,01:40,0.588,0.886,0.562,1.089,0.763,0.358,0.621,0.584,��쐼,1.1,��
2021/11/19,01:50,0.589,0.886,0.561,1.088,0.763,0.357,0.622,0.584,��,0.9,��
2021/11/19,02:00,0.590,0.889,0.561,1.089,0.762,0.358,0.618,0.585,���쐼,2.0,��
2021/11/19,02:10,0.590,0.887,0.561,1.089,0.763,0.357,0.623,0.583,���쐼,3.0,��
2021/11/19,02:20,0.591,0.888,0.561,1.090,0.762,0.358,0.621,0.583,���쐼,3.5,��
2021/11/19,02:30,0.591,0.887,0.561,1.089,0.762,0.357,0.620,0.583,���쐼,3.0,��
2021/11/19,02:40,0.590,0.886,0.562,1.090,0.763,0.357,0.621,0.584,�쐼,3.4,��
2021/11/19,02:50,0.590,0.888,0.561,1.089,0.763,0.357,0.621,0.584,�쐼,3.4,��
2021/11/19,03:00,0.591,0.889,0.562,1.091,0.764,0.358,0.620,0.584,�쐼,3.0,��
2021/11/19,03:10,0.590,0.889,0.561,1.089,0.763,0.358,0.620,0.584,���쐼,3.6,��
2021/11/19,03:20,0.591,0.888,0.562,1.089,0.762,0.359,0.621,0.584,���쐼,4.0,��
2021/11/19,03:30,0.590,0.887,0.561,1.089,0.763,0.358,0.622,0.585,���쐼,5.1,��
2021/11/19,03:40,0.591,0.887,0.563,1.089,0.761,0.356,0.621,0.584,��,6.1,��
2021/11/19,03:50,0.591,0.888,0.562,1.089,0.762,0.359,0.619,0.584,���쐼,7.8,��
2021/11/19,04:00,0.589,0.886,0.561,1.089,0.761,0.357,0.622,0.584,���쐼,6.4,��
2021/11/19,04:10,0.591,0.886,0.563,1.089,0.761,0.357,0.622,0.586,���쐼,6.0,��
2021/11/19,04:20,0.589,0.887,0.561,1.090,0.761,0.357,0.621,0.584,��,5.4,��
2021/11/19,04:30,0.590,0.886,0.562,1.092,0.760,0.357,0.621,0.584,��,4.4,��
2021/11/19,04:40,0.589,0.887,0.561,1.090,0.762,0.358,0.621,0.583,��,3.0,��
2021/11/19,04:50,0.589,0.887,0.561,1.090,0.762,0.358,0.622,0.586,�쐼,2.6,��
2021/11/19,05:00,0.590,0.887,0.561,1.091,0.762,0.357,0.621,0.585,�쐼,1.2,��
2021/11/19,05:10,0.590,0.887,0.563,1.090,0.761,0.357,0.622,0.584,��쐼,1.7,��
2021/11/19,05:20,0.591,0.887,0.561,1.090,0.761,0.359,0.622,0.583,�쐼,2.9,��
2021/11/19,05:30,0.589,0.889,0.561,1.090,0.763,0.358,0.620,0.585,�쐼,2.0,��
2021/11/19,05:40,0.591,0.886,0.560,1.090,0.761,0.357,0.622,0.583,��쐼,1.4,��
2021/11/19,05:50,0.589,0.886,0.559,1.091,0.762,0.359,0.623,0.585,���쐼,1.2,��
2021/11/19,06:00,0.590,0.888,0.560,1.090,0.761,0.359,0.621,0.584,���k��,2.9,��
2021/11/19,06:10,0.590,0.886,0.563,1.091,0.761,0.357,0.620,0.583,���k��,3.5,��
2021/11/19,06:20,0.590,0.885,0.562,1.089,0.761,0.357,0.621,0.584,��,3.3,��
2021/11/19,06:30,0.591,0.888,0.561,1.087,0.762,0.358,0.619,0.585,���쐼,2.3,��
2021/11/19,06:40,0.589,0.887,0.562,1.088,0.761,0.359,0.622,0.584,���쐼,1.9,��
2021/11/19,06:50,0.590,0.886,0.561,1.089,0.763,0.357,0.620,0.584,��,3.5,��
2021/11/19,07:00,0.590,0.887,0.561,1.089,0.761,0.358,0.622,0.584,��,3.7,��
2021/11/19,07:10,0.590,0.887,0.562,1.093,0.763,0.359,0.623,0.584,���쐼,3.7,��
2021/11/19,07:20,0.590,0.885,0.561,1.088,0.762,0.358,0.621,0.585,���쐼,2.9,��
2021/11/19,07:30,0.590,0.888,0.561,1.090,0.761,0.358,0.622,0.583,���쐼,3.2,��
2021/11/19,07:40,0.589,0.886,0.562,1.089,0.762,0.358,0.621,0.585,���쐼,2.8,��
2021/11/19,07:50,0.591,0.888,0.562,1.091,0.760,0.358,0.623,0.583,��,2.0,��
2021/11/19,08:00,0.590,0.890,0.562,1.088,0.760,0.359,0.622,0.584,��,2.2,��
2021/11/19,08:10,0.591,0.888,0.570,1.092,0.761,0.357,0.623,0.584,���k��,2.0,��
2021/11/19,08:20,0.591,0.888,0.562,1.088,0.762,0.357,0.622,0.585,��,1.5,��
2021/11/19,08:30,0.591,0.888,0.562,1.089,0.762,0.358,0.625,0.585,���k��,2.0,��
2021/11/19,08:40,0.591,0.888,0.563,1.093,0.761,0.359,0.622,0.586,��,2.0,��
2021/11/19,08:50,0.591,0.889,0.562,1.090,0.760,0.358,0.623,0.585,���k��,1.7,��
2021/11/19,09:00,0.593,0.883,0.564,1.092,0.761,0.358,0.621,0.585,���k��,1.5,��
2021/11/19,09:10,0.592,0.885,0.561,1.089,0.761,0.359,0.620,0.585,��,1.5,��
2021/11/19,09:20,0.592,0.885,0.564,1.089,0.762,0.359,0.621,0.584,���쐼,1.2,��
2021/11/19,09:30,0.592,0.885,0.563,1.093,0.764,0.360,0.623,0.586,��쐼,2.0,��
2021/11/19,09:40,0.592,0.887,0.565,1.091,0.763,0.358,0.621,0.585,��,1.7,��
2021/11/19,09:50,0.592,0.886,0.566,1.090,0.764,0.359,0.622,0.585,��,1.5,��
2021/11/19,10:00,0.591,0.884,0.562,1.092,0.763,0.359,0.621,0.587,�쓌,1.5,��
2021/11/19,10:10,0.592,0.882,0.566,1.091,0.764,0.358,0.621,0.584,�쓌,2.0,��
2021/11/19,10:20,0.590,0.882,0.564,1.091,0.763,0.359,0.622,0.585,��쓌,1.9,��
2021/11/19,10:30,0.592,0.887,0.564,1.090,0.762,0.357,0.621,0.586,�쓌,1.7,��
2021/11/19,10:40,0.590,0.886,0.562,1.092,0.763,0.357,0.622,0.585,�쓌,1.5,��
2021/11/19,10:50,0.591,0.888,0.562,1.091,0.763,0.357,0.622,0.588,�쓌,1.7,��
2021/11/19,11:00,0.592,0.885,0.562,1.092,0.761,0.357,0.621,0.586,�쓌,2.2,��
2021/11/19,11:10,0.592,0.888,0.562,1.092,0.763,0.357,0.621,0.586,�쓌,3.0,��
2021/11/19,11:20,0.592,0.888,0.564,1.092,0.764,0.357,0.620,0.586,��쓌,3.0,��
2021/11/19,11:30,0.592,0.888,0.564,1.092,0.761,0.356,0.622,0.584,��쓌,2.6,��
2021/11/19,11:40,0.591,0.889,0.563,1.091,0.763,0.357,0.624,0.586,��쓌,3.6,��
2021/11/19,11:50,0.592,0.887,0.564,1.092,0.763,0.359,0.622,0.586,�쓌,4.0,��
2021/11/19,12:00,0.592,0.889,0.564,1.091,0.763,0.359,0.621,0.585,��쓌,3.1,��
2021/11/19,12:10,0.592,0.890,0.562,1.094,0.763,0.358,0.622,0.584,��쓌,3.3,��
2021/11/19,12:20,0.593,0.890,0.564,1.091,0.764,0.360,0.621,0.584,��쓌,2.6,��
2021/11/19,12:30,0.592,0.890,0.565,1.093,0.763,0.359,0.624,0.584,��쓌,2.9,��
2021/11/19,12:40,0.593,0.888,0.563,1.091,0.767,0.359,0.621,0.584,��쓌,4.3,��
2021/11/19,12:50,0.591,0.888,0.564,1.093,0.765,0.360,0.622,0.583,��쓌,3.6,��
2021/11/19,13:00,0.593,0.887,0.564,1.092,0.763,0.359,0.622,0.584,��쓌,3.8,��
2021/11/19,13:10,0.593,0.888,0.564,1.092,0.764,0.359,0.621,0.583,��,3.5,��
2021/11/19,13:20,0.594,0.888,0.562,1.094,0.766,0.358,0.623,0.583,��쓌,3.3,��
2021/11/19,13:30,0.593,0.887,0.564,1.093,0.764,0.359,0.623,0.585,��쓌,3.4,��
2021/11/19,13:40,0.591,0.890,0.563,1.093,0.765,0.359,0.623,0.583,��쓌,3.7,��
2021/11/19,13:50,0.592,0.887,0.564,1.092,0.763,0.359,0.622,0.583,��쓌,3.4,��
2021/11/19,14:00,0.590,0.889,0.562,1.095,0.763,0.358,0.624,0.584,��쓌,4.3,��
2021/11/19,14:10,0.592,0.887,0.562,1.092,0.763,0.358,0.624,0.583,��,4.4,��
2021/11/19,14:20,0.592,0.888,0.564,1.093,0.763,0.358,0.623,0.584,��쓌,3.9,��
2021/11/19,14:30,0.593,0.888,0.562,1.093,0.765,0.358,0.623,0.584,��쓌,4.2,��
2021/11/19,14:40,0.592,0.888,0.562,1.092,0.765,0.357,0.624,0.584,��쓌,4.9,��
2021/11/19,14:50,0.592,0.888,0.564,1.092,0.763,0.357,0.624,0.583,��쓌,4.6,��
2021/11/19,15:00,0.591,0.889,0.564,1.093,0.764,0.359,0.623,0.583,��쓌,3.7,��
2021/11/19,15:10,0.591,0.893,0.563,1.092,0.762,0.358,0.623,0.584,��쓌,3.4,��
2021/11/19,15:20,0.591,0.892,0.562,1.090,0.764,0.359,0.626,0.583,��쐼,3.0,��
2021/11/19,15:30,0.592,0.892,0.563,1.092,0.763,0.359,0.623,0.585,��,3.0,��
2021/11/19,15:40,0.593,0.890,0.562,1.092,0.765,0.357,0.625,0.586,��쐼,2.3,��
2021/11/19,15:50,0.591,0.892,0.563,1.093,0.765,0.359,0.624,0.586,��,2.5,��
2021/11/19,16:00,0.592,0.893,0.565,1.092,0.763,0.359,0.625,0.587,��,5.1,��
2021/11/19,16:10,0.592,0.892,0.564,1.094,0.764,0.359,0.625,0.587,��,5.1,��
2021/11/19,16:20,0.591,0.893,0.564,1.093,0.764,0.359,0.623,0.586,��쐼,4.5,��
2021/11/19,16:30,0.592,0.895,0.564,1.094,0.764,0.359,0.625,0.586,��쐼,3.7,��
2021/11/19,16:40,0.591,0.892,0.566,1.091,0.766,0.359,0.625,0.586,�쐼,3.5,��
2021/11/19,16:50,0.594,0.894,0.565,1.094,0.767,0.360,0.625,0.585,�쐼,3.5,��
2021/11/19,17:00,0.594,0.891,0.566,1.092,0.767,0.359,0.623,0.586,�쐼,3.4,��
2021/11/19,17:10,0.594,0.893,0.566,1.094,0.767,0.360,0.624,0.586,�쐼,4.3,��
2021/11/19,17:20,0.594,0.891,0.564,1.092,0.766,0.358,0.625,0.587,���쐼,4.1,��
2021/11/19,17:30,0.596,0.893,0.565,1.093,0.764,0.360,0.625,0.584,��,4.4,��
2021/11/19,17:40,0.593,0.893,0.565,1.093,0.767,0.361,0.622,0.585,���쐼,4.9,��
2021/11/19,17:50,0.594,0.891,0.564,1.094,0.766,0.360,0.623,0.585,��,5.2,��
2021/11/19,18:00,0.594,0.893,0.566,1.093,0.766,0.358,0.624,0.585,��,4.5,��
2021/11/19,18:10,0.592,0.893,0.564,1.091,0.766,0.359,0.623,0.585,��,4.4,��
2021/11/19,18:20,0.595,0.893,0.564,1.094,0.768,0.360,0.624,0.587,���쐼,4.3,��
2021/11/19,18:30,0.593,0.891,0.564,1.095,0.766,0.358,0.623,0.586,���쐼,4.4,��
2021/11/19,18:40,0.592,0.891,0.564,1.092,0.764,0.360,0.623,0.587,���쐼,5.7,��
2021/11/19,18:50,0.595,0.892,0.566,1.092,0.764,0.359,0.626,0.586,���쐼,4.8,��
2021/11/19,19:00,0.595,0.891,0.564,1.093,0.766,0.358,0.624,0.584,���쐼,4.2,��
2021/11/19,19:10,0.595,0.892,0.565,1.093,0.767,0.359,0.623,0.584,���쐼,4.2,��
2021/11/19,19:20,0.593,0.890,0.563,1.094,0.765,0.358,0.623,0.585,��,3.6,��
2021/11/19,19:30,0.592,0.894,0.562,1.095,0.766,0.359,0.622,0.585,��,4.9,��
2021/11/19,19:40,0.594,0.893,0.565,1.093,0.766,0.359,0.623,0.586,���k��,3.7,��
2021/11/19,19:50,0.594,0.891,0.564,1.092,0.766,0.359,0.622,0.584,�k��,3.6,��
2021/11/19,20:00,0.594,0.893,0.565,1.092,0.766,0.358,0.622,0.585,���k��,3.9,��
2021/11/19,20:10,0.593,0.893,0.564,1.092,0.767,0.359,0.624,0.585,���k��,3.4,��
2021/11/19,20:20,0.592,0.893,0.562,1.090,0.766,0.358,0.623,0.586,���k��,3.8,��
2021/11/19,20:30,0.593,0.893,0.565,1.091,0.765,0.359,0.623,0.586,���k��,4.3,��
2021/11/19,20:40,0.593,0.894,0.564,1.093,0.766,0.359,0.623,0.585,��,4.5,��
2021/11/19,20:50,0.594,0.891,0.565,1.093,0.765,0.360,0.623,0.583,��,5.6,��
2021/11/19,21:00,0.593,0.892,0.565,1.095,0.765,0.358,0.622,0.586,��,6.1,��
2021/11/19,21:10,0.594,0.893,0.563,1.092,0.765,0.358,0.623,0.584,���k��,6.4,��
2021/11/19,21:20,0.592,0.893,0.565,1.093,0.765,0.358,0.623,0.585,���k��,4.2,��
2021/11/19,21:30,0.595,0.892,0.564,1.092,0.766,0.359,0.623,0.585,���k��,6.9,��
2021/11/19,21:40,0.594,0.892,0.566,1.094,0.766,0.358,0.623,0.584,���k��,6.9,��
2021/11/19,21:50,0.594,0.891,0.564,1.093,0.765,0.359,0.623,0.585,���k��,5.2,��
2021/11/19,22:00,0.595,0.892,0.565,1.096,0.765,0.359,0.625,0.586,��,6.2,��
2021/11/19,22:10,0.594,0.892,0.565,1.092,0.765,0.358,0.623,0.585,��,5.7,��
2021/11/19,22:20,0.594,0.892,0.565,1.093,0.766,0.359,0.624,0.586,��,6.7,��
2021/11/19,22:30,0.592,0.892,0.564,1.093,0.765,0.358,0.623,0.586,���k��,6.3,��
2021/11/19,22:40,0.592,0.893,0.565,1.091,0.767,0.360,0.623,0.586,�k��,5.5,��
2021/11/19,22:50,0.593,0.890,0.565,1.092,0.766,0.359,0.623,0.585,�k��,5.2,��
2021/11/19,23:00,0.593,0.893,0.563,1.094,0.765,0.359,0.623,0.586,���k��,4.3,��
2021/11/19,23:10,0.593,0.892,0.566,1.092,0.766,0.360,0.622,0.585,��,4.7,��
2021/11/19,23:20,0.594,0.892,0.565,1.092,0.766,0.358,0.623,0.587,��,5.3,��
2021/11/19,23:30,0.593,0.891,0.564,1.092,0.766,0.358,0.623,0.586,��,6.2,��
2021/11/19,23:40,0.593,0.893,0.565,1.091,0.765,0.358,0.624,0.586,��,5.7,��
2021/11/19,23:50,0.593,0.892,0.564,1.093,0.767,0.359,0.621,0.584,��,5.4,��
